COSMOS 2251 DEB, 35025

Orbit data source: Space-Track

COSMOS 2251 DEB, 35025 is space debris in LEO originally from a launch on Wed, 16 Jun 1993 UTC launched from the Plesetsk Missile And Space Complex (PKMTR). The debris from Iridium 33, an American commercial communications satellite, has been tracked extensively since its accidental collision with the defunct Russian satellite Cosmos 2251 in 2009. This event, occurring at high speed in low Earth orbit (LEO), generated thousands of pieces of space debris, significantly increasing the risk of further collisions. The Iridium 33 debris cloud has impacted space traffic management and orbital debris mitigation strategies, making it a subject of ongoing study in space situational awareness.

Loading next visibility...
Identifier
35025, 1993-036AGN
Orbit
LEO
Country
Flag of CISCIS
Related business
Manufacturer
Unknown
Mission
Spacecraft
Bus & Motor
Unknown
Mass
Unknown
Launch date (UTC)
1993-06-16 (32 years ago)
Launch vehicle
Unknown
Launch site
Plesetsk Missile And Space Complex (PKMTR)
Object type
Payload
Rocket body
Debris
Shape & HBR
Unknown shape, 0.1 m
Radar Cross Section
Small (<0.1 m²)

Expand to show TLE details & history
Last TLE update: 2 days ago

TLE from 2 days ago
0 COSMOS 2251 DEB
1 35025U 93036AGN 25298.59143155  .00003342  00000-0  50483-3 0  9990
2 35025  73.9364 157.2290 0083331  82.1054 278.9566 14.72359327879340
Epoch: 2025-10-25T14:11Z
TLE epoch observation values (Epoch: 2025-10-25T14:11:39.685Z)
Latitude
-0.00003°
Longitude
-89.90614°
Altitude
647.549 km
Speed
7.539 km/s
True Right ascension
10h 28m 54s
True Declination
0° 00' 00"
Sunlit
Object was in daylight at epoch
Visualization orbit readout
Latitude
Unknown
Longitude
Unknown
Altitude
Unknown
Speed
Unknown
Apparent Right ascension
Unknown
Apparent Declination
Unknown
Sunlit
N/A
Visualization observer readout
Local Sidereal Time
21:58:51
Azimuth
Unknown
Elevation
Unknown
Doppler factor
Unknown
Orbital elements
Apogee altitude
709.714 km
Perigee altitude
592.563 km
Semi-major axis
7,029.276 km
Eccentricity
0.00833
Inclination
73.9364°
RAAN
157.229°
Arg. of periapsis
82.1054°
True anomaly
278.01185°
Mean anomaly
278.9566°
Eccentric anomaly
278.48437°
Mean motion
3.68279 °/min
Orbital period
97.75 mins
BSTAR
0.00050483
Loading maneuver chart data...
Computing Atmospheric mass density...

Documentation

Showing up to 5 results
|